Theta_e
321 323 323 324 323 323 321 321 321 322 318 319 319 320 323 326 334 335 338 340 339 343 344 347 350 350 353 356 359 361 362 363 362 362 362 362 360 358 357 356 356 356 354 352
323 324 324 325 325 325 324 323 322 319 319 317 319 320 325 330 335 335 335 340 342 343 346 348 349 350 352 355 360 361 362 363 363 363 363 363 363 361 359 358 359 359 355 352
321 323 325 326 326 325 324 323 323 321 320 319 321 322 323 325 327 332 335 341 343 344 347 347 350 351 351 355 359 362 362 363 363 363 363 363 363 363 362 359 359 360 358 355
321 322 328 327 326 325 324 326 324 322 321 322 322 322 322 327 328 330 330 334 343 344 344 347 350 351 352 352 356 361 362 363 364 363 363 362 363 363 362 362 359 359 359 359
323 325 324 330 329 326 324 326 335 326 330 324 324 324 326 328 325 326 328 330 330 339 344 345 347 350 352 352 354 356 359 361 362 363 362 362 362 362 361 362 360 360 360 358
323 327 330 326 333 333 330 348 343 342 340 337 330 326 327 335 341 327 325 326 327 330 342 350 346 348 350 351 353 354 356 358 361 362 361 361 361 361 361 362 361 361 361 358
326 331 327 338 337 334 336 335 341 341 340 338 339 333 334 338 342 341 339 333 329 326 329 342 350 347 347 350 352 353 355 356 358 361 361 360 362 361 362 361 361 360 356 356
329 337 342 326 336 334 335 348 349 351 348 349 348 349 346 343 341 343 340 339 351 329 328 334 343 349 347 348 350 351 353 354 354 358 359 361 362 361 361 360 357 352 351 350
327 334 326 325 338 343 341 343 344 345 345 345 346 344 344 347 350 351 352 352 356 354 348 356 347 350 349 348 348 349 350 353 355 358 360 361 360 358 355 354 351 350 348 346
330 329 332 341 342 339 337 340 339 338 338 338 340 339 338 338 340 340 339 340 339 344 355 358 359 353 350 349 349 352 359 362 361 359 357 357 355 354 350 349 347 345 344 342
330 329 331 334 338 337 335 335 335 334 335 335 335 334 334 334 334 335 336 334 333 332 331 329 354 363 361 360 363 363 360 359 356 353 353 348 348 347 347 347 349 346 344 344
337 331 331 330 334 333 332 331 331 331 332 332 333 333 331 331 330 332 334 333 329 328 327 328 330 337 363 363 360 357 354 354 351 340 335 336 338 341 346 347 346 345 344 343
331 326 326 328 326 326 327 327 328 328 326 327 328 329 329 328 328 331 334 334 336 336 330 329 338 332 353 356 356 355 354 350 342 339 339 338 340 342 326 337 345 345 345 341
327 327 328 326 327 326 325 326 325 327 330 331 329 326 326 328 331 332 334 337 342 340 340 343 342 338 350 351 351 350 348 343 342 339 336 337 336 332 331 329 330 333 339 340
326 326 326 326 325 324 323 323 325 326 327 328 327 329 329 328 330 334 336 338 340 342 345 346 349 350 351 351 349 348 347 344 342 339 338 337 336 333 330 330 327 329 330 331
325 324 325 326 326 323 323 322 323 324 325 326 324 322 326 331 332 333 334 335 337 338 338 340 343 348 350 351 349 349 348 346 344 341 339 337 335 333 331 329 327 325 326 327
325 325 322 323 323 323 323 323 322 321 323 324 324 326 324 323 324 326 329 329 327 332 336 337 336 334 332 339 345 344 347 348 347 344 342 340 340 337 337 337 331 325 325 327
321 320 321 322 322 323 324 324 323 323 324 325 326 326 326 327 326 323 324 324 323 323 331 337 337 337 335 329 329 332 338 336 335 340 341 341 340 339 336 332 328 325 323 323
322 323 322 319 319 321 322 323 324 324 325 327 325 325 326 327 329 330 329 329 328 326 323 332 333 334 334 335 335 333 332 335 335 334 336 336 335 332 335 333 328 326 324 323
323 323 322 323 322 320 323 324 325 325 325 325 325 325 324 325 328 326 325 325 325 326 328 323 326 330 330 332 334 335 333 331 330 329 329 328 328 329 330 330 329 327 325 323
322 323 322 322 323 323 324 322 321 321 323 322 325 325 323 325 325 323 321 322 319 319 321 325 325 328 329 330 330 331 331 330 330 329 328 327 327 328 328 329 329 328 326 324
321 321 322 321 321 321 321 322 321 320 319 318 320 324 323 321 320 320 320 319 317 315 314 315 317 318 320 326 329 329 329 329 328 328 326 324 324 323 325 326 326 326 326 325
318 317 316 317 316 316 316 317 317 315 315 316 316 315 319 321 320 315 314 319 320 318 317 315 316 317 318 318 324 326 326 327 327 324 323 323 320 317 320 322 323 325 325 324
313 309 309 310 312 314 313 314 314 313 313 314 314 313 313 315 314 314 315 316 317 319 318 318 317 318 318 317 317 318 320 322 322 321 322 321 320 319 317 315 315 315 316 317
308 306 306 307 307 308 307 310 310 310 313 313 312 310 310 308 308 307 307 309 316 318 317 317 316 316 316 317 317 316 316 316 316 316 316 317 316 315 314 314 313 313 313 313
305 304 304 304 305 306 306 307 307 307 309 309 308 307 306 305 305 305 304 306 308 312 312 313 313 313 313 314 314 314 314 315 315 314 314 315 315 315 313 313 313 311 312 312
304 303 303 303 304 305 306 306 305 304 304 304 303 303 304 304 303 303 303 303 303 303 303 303 306 307 309 307 309 309 308 308 309 313 313 313 313 312 312 310 310 310 310 310
Wind_Speed
13 17 20 17 10 19 21 21 21 21 12 9 10 9 10 9 9 7 15 12 17 19 20 20 27 35 37 39 42 43 43 42 42 41 37 37 39 42 40 39 41 42 41 39
7 13 25 23 19 22 18 21 20 9 8 11 13 11 8 11 9 10 11 16 19 22 23 21 25 35 39 39 42 42 41 43 42 39 38 38 38 37 37 36 39 38 37 40
7 9 16 17 33 21 15 11 16 15 10 10 9 9 11 10 9 10 9 14 14 22 23 21 29 36 36 40 40 41 43 39 39 39 38 38 37 35 35 35 34 34 34 37
6 7 15 5 19 14 8 7 10 15 11 14 15 16 11 10 9 9 9 7 21 16 18 29 36 37 42 39 41 41 41 39 39 39 38 36 35 36 32 32 32 34 35 34
4 3 7 3 3 9 8 5 3 7 10 7 7 5 4 5 5 12 11 9 8 14 20 20 31 37 36 35 38 38 38 39 40 40 36 35 35 36 32 30 32 35 37 37
4 3 5 3 2 8 7 2 5 1 7 7 7 9 4 5 3 10 7 6 10 16 23 27 31 36 39 36 38 38 42 43 44 40 37 35 36 34 33 35 35 37 38 34
8 5 6 5 14 1 8 7 2 2 3 4 6 4 4 3 4 3 3 8 14 13 12 26 35 31 30 33 34 47 48 45 36 39 38 37 33 33 34 34 34 34 32 30
4 4 6 18 13 4 6 3 6 4 3 8 7 7 5 6 1 5 6 6 6 5 11 30 30 34 31 30 46 45 38 34 34 36 36 36 37 34 36 36 31 27 27 24
5 5 14 10 3 8 5 7 4 4 3 6 7 6 6 7 9 10 11 8 17 10 7 9 20 31 28 42 37 31 32 31 32 32 34 38 38 35 29 29 27 25 23 24
2 1 13 15 9 7 6 9 8 8 7 5 9 6 11 10 10 9 11 14 22 22 15 7 14 24 27 31 38 38 32 29 31 32 33 34 32 33 30 29 27 25 23 23
2 5 16 13 12 4 8 11 11 10 8 8 10 12 10 8 8 7 9 14 16 12 13 23 30 21 23 26 30 32 34 29 28 28 30 29 26 20 23 25 35 32 30 30
1 8 5 6 6 9 10 9 8 9 11 11 12 10 9 8 6 8 10 13 12 15 18 20 33 44 27 36 41 34 28 30 27 27 27 30 29 22 25 26 25 26 27 27
3 11 1 5 15 11 13 14 10 9 8 12 8 8 7 5 6 11 16 13 14 17 21 52 58 32 23 28 36 33 29 29 30 35 34 27 36 38 15 21 25 23 25 24
7 6 10 12 7 11 14 11 8 15 14 14 11 9 6 6 8 10 8 9 14 17 20 36 5 44 10 22 26 29 23 24 25 24 29 29 27 33 30 25 22 24 24 23
7 6 12 6 13 9 12 9 11 14 13 15 13 11 11 13 13 12 19 18 16 18 15 13 19 24 18 19 23 29 26 23 23 25 27 30 29 26 19 20 21 24 21 22
10 7 11 12 9 11 12 14 12 11 11 9 9 10 13 18 18 20 22 23 19 11 21 23 26 17 18 20 21 23 23 22 26 27 27 24 25 25 24 20 20 19 21 23
12 8 8 6 7 7 7 8 9 8 7 9 8 10 12 12 15 16 20 21 21 23 26 25 22 23 27 29 21 20 18 13 17 21 22 24 25 26 22 15 18 22 25 26
10 8 4 3 6 7 6 4 3 3 4 5 11 13 10 7 6 7 14 17 20 26 34 23 19 18 18 17 14 13 16 12 10 9 9 12 15 18 22 26 27 26 25 24
6 2 2 1 2 2 3 4 3 4 5 7 10 6 9 14 15 12 16 16 13 11 17 21 19 18 15 8 6 6 7 0 6 9 11 15 14 10 17 25 23 26 24 25
8 6 4 4 8 3 5 5 9 9 9 9 11 11 9 15 17 17 19 16 19 14 10 11 17 22 15 13 18 20 22 24 24 23 19 15 12 16 23 22 26 27 27 28
8 8 10 10 11 14 13 16 15 10 13 16 12 9 12 18 20 18 16 7 18 20 22 20 19 14 13 8 13 18 20 21 22 20 20 16 17 14 19 21 22 25 26 28
5 8 8 10 9 10 18 19 18 17 19 22 17 14 14 15 17 18 17 13 13 17 21 23 22 22 19 8 13 17 17 17 17 18 16 12 11 14 17 17 21 23 25 27
10 14 14 14 15 18 23 22 21 25 23 21 24 24 18 15 14 12 5 15 13 16 19 24 24 25 25 26 8 9 13 13 13 16 21 18 17 10 10 12 11 13 17 20
18 23 20 22 24 22 12 17 26 24 24 25 26 27 25 19 26 28 28 19 11 13 20 22 23 25 27 28 26 23 12 4 2 9 13 11 10 12 15 13 14 14 12 11
19 24 28 25 17 13 19 17 22 25 26 25 25 26 32 31 24 26 34 32 29 24 23 22 24 26 26 25 26 26 26 23 19 13 2 6 8 11 12 11 10 10 9 7
20 17 21 24 19 20 20 23 17 19 20 21 23 25 29 26 29 33 33 34 37 33 33 28 27 27 26 25 24 24 24 24 24 22 20 19 16 12 7 3 5 7 12 12
22 24 23 23 26 27 26 25 21 19 22 21 23 27 29 28 32 33 33 32 31 30 32 31 30 28 24 25 23 21 21 21 21 20 21 23 21 21 18 15 15 12 10 6
Wind_Direction
302 265 201 206 196 210 213 218 212 234 195 216 248 218 244 245 274 217 200 194 189 190 189 182 185 190 193 193 191 193 193 195 202 205 203 204 209 215 216 219 221 225 222 221
281 259 216 216 210 218 218 219 227 210 215 179 217 226 224 218 211 246 207 201 183 187 187 180 186 188 192 192 193 193 197 202 199 201 201 203 206 208 211 214 219 219 220 222
285 316 210 227 220 211 219 212 212 217 206 193 196 201 209 232 220 213 255 171 186 187 188 191 188 189 191 193 191 194 200 203 202 200 200 201 202 202 205 206 211 214 217 221
274 306 205 221 195 203 198 211 212 224 219 203 205 224 194 189 178 205 204 250 177 192 197 189 191 189 194 193 190 195 200 200 202 201 201 200 197 200 200 198 199 208 215 219
246 257 273 185 194 142 158 246 268 196 212 208 192 103 10 214 223 181 182 202 181 181 182 200 188 193 191 191 196 196 199 202 202 202 198 195 196 195 192 189 190 202 216 211
265 291 274 252 235 131 110 12 323 133 142 134 128 165 235 266 273 240 256 195 197 208 177 180 204 196 184 190 193 198 203 204 202 198 196 193 195 190 188 188 189 201 211 215
235 255 280 307 307 11 132 210 103 58 64 109 101 165 213 250 261 206 205 234 250 197 190 198 195 190 193 195 197 204 204 206 196 193 193 194 186 181 177 182 190 194 201 212
221 282 263 353 335 179 170 63 114 80 42 88 83 61 61 55 81 324 312 303 278 234 213 222 204 184 194 194 204 206 203 196 194 188 185 182 174 169 180 183 185 175 173 183
191 180 293 292 335 351 5 100 37 67 66 85 87 45 32 31 29 21 4 355 351 308 255 276 213 199 193 203 198 191 187 186 184 178 175 166 164 166 171 172 160 155 161 171
52 256 349 347 32 8 40 75 94 86 68 50 92 61 57 40 29 29 26 26 21 19 351 298 208 214 221 193 176 167 166 163 159 157 158 158 162 166 161 155 150 155 158 166
268 354 344 347 357 343 39 60 59 56 62 63 73 63 68 56 36 35 31 24 22 15 358 352 330 157 163 160 155 150 144 148 148 144 143 137 133 138 149 157 160 163 170 172
31 89 227 346 297 6 36 32 27 55 50 44 60 66 57 35 5 47 54 44 24 1 342 354 329 324 143 145 140 138 135 140 140 126 120 117 114 121 145 160 172 176 170 175
175 94 323 57 37 33 55 50 35 64 59 68 56 65 59 55 34 57 53 37 23 1 356 342 307 287 281 137 137 142 143 142 142 138 132 144 142 141 142 143 170 164 163 155
172 85 59 36 49 5 28 27 29 59 58 54 54 47 37 31 41 39 37 28 38 34 26 326 239 178 111 107 118 112 118 130 128 141 129 137 143 143 157 147 136 143 151 160
87 116 123 112 66 11 52 13 40 45 52 53 48 55 46 44 43 32 31 38 46 43 12 41 24 64 84 100 97 108 113 117 128 128 132 145 145 138 148 146 142 136 141 156
104 78 69 72 74 31 37 20 14 20 39 44 51 47 59 55 47 38 32 29 42 37 19 37 34 44 76 88 101 106 112 133 135 137 139 133 136 142 144 153 145 160 163 164
103 83 72 69 79 72 63 29 334 338 20 38 38 40 39 63 65 51 31 31 37 47 46 49 56 69 70 74 85 92 112 133 148 147 150 153 149 149 148 151 183 187 190 181
63 65 42 121 135 140 102 216 267 330 27 32 50 50 44 48 55 52 50 37 38 44 46 51 51 59 61 62 68 64 80 82 70 104 133 150 164 166 170 183 187 186 200 199
37 311 200 156 266 78 185 236 260 288 349 74 56 38 63 65 54 61 63 53 39 33 30 52 56 58 66 82 68 115 108 74 151 163 166 176 167 182 193 189 185 183 186 183
28 73 137 164 200 173 97 107 96 77 61 58 61 52 47 55 71 55 57 55 52 59 51 43 60 56 60 116 129 143 147 140 124 108 108 116 134 166 204 183 181 183 183 185
9 35 73 79 78 70 69 73 65 49 46 51 66 63 66 65 64 59 57 54 54 56 58 66 67 67 77 87 124 134 136 135 133 129 124 131 142 178 192 185 180 183 185 190
31 21 58 55 54 50 45 58 59 57 53 48 57 73 71 55 54 56 55 61 59 61 59 53 59 56 59 100 129 129 134 132 122 125 128 126 142 148 160 169 185 189 196 197
39 34 35 57 69 66 54 55 48 53 51 51 53 53 55 35 33 40 23 23 37 44 51 48 43 44 47 49 85 129 131 135 146 141 138 142 134 120 100 136 163 192 205 203
44 48 44 43 52 55 46 37 52 46 51 51 52 53 50 49 48 32 35 32 31 43 45 52 50 51 61 59 59 63 68 52 152 169 165 165 160 170 165 160 138 144 150 162
54 52 46 43 44 39 36 44 50 44 56 58 53 53 60 52 48 39 38 33 48 59 66 57 58 63 66 65 61 59 57 55 59 79 116 207 192 189 187 178 178 185 187 182
52 52 47 40 32 34 31 46 48 36 59 60 45 40 52 50 51 50 42 37 42 53 51 55 58 62 64 65 65 59 53 49 48 52 59 72 78 79 65 90 196 221 195 189
51 48 43 34 24 23 39 57 57 46 55 61 58 44 50 50 49 49 49 42 42 43 42 37 42 43 48 49 51 51 54 50 44 47 52 56 59 63 59 63 85 104 102 98